Weather History for Newport Airport, OR

Change the Weather History Date:

Saturday, December 21, 2013

  Actual Average Record
Temperature  
Mean Temperature 46 °F -  
Max Temperature 48 °F 48 °F 59 °F (2003)
Min Temperature 44 °F 39 °F 19 °F (1998)
Degree Days  
Heating Degree Days 19    
Moisture  
Dew Point 46 °F    
Average Humidity 98    
Maximum Humidity 100    
Minimum Humidity 93    
Precipitation  
Precipitation 0.05 in - - ()
Sea Level Pressure  
Sea Level Pressure 30.20 in    
Wind  
Wind Speed 4 mph (WSW)    
Max Wind Speed 10 mph    
Max Gust Speed -    
Visibility 3 miles    
Events Rain    
Averages and records for this station are not official NWS values.
T = Trace of Precipitation, MM = Missing Value Source: NWS Daily Summary

Daily Weather History Graph

Daily Weather History Graph

Search for Another Location

Airport:

Trip Planner

Search our weather history database for the weather conditions in past years. The results will help you decide how hot, cold, wet, or windy it might be!

Date:

Astronomy

Dec. 21, 2013 Rise Set
Actual Time 7:50 AM PST 4:39 PM PST
Civil Twilight 7:16 AM PST 5:12 PM PST
Nautical Twilight 6:39 AM PST 5:49 PM PST
Astronomical Twilight 6:03 AM PST 6:25 PM PST
Moon 9:10 PM PST (12/21) 10:10 AM PST (12/21)
Length of Visible Light 9h 56m
Length of Day
8h 49m
Waning Gibbous, 83% of the Moon is Illuminated
Dec 21
Waning Gibbous
Dec 25
Last Quarter
Jan 1
New
Jan 7
First Quarter
Jan 15
Full

Hourly Weather History & Observations

Time (PST) Temp. Windchill Dew Point Humidity Pressure Visibility Wind Dir Wind Speed Gust Speed Precip Events Conditions
12:15 AM 48.2 °F - 48.2 °F 100% 30.06 in 2.5 mi West 5.8 mph - 0.01 in   Light Drizzle
12:35 AM 48.2 °F - 48.2 °F 100% 30.05 in 1.5 mi WSW 5.8 mph - 0.01 in   Drizzle
12:55 AM 48.2 °F - 46.4 °F 93% 30.05 in 1.0 mi WSW 6.9 mph - 0.01 in Rain Light Rain
1:15 AM 48.2 °F - 46.4 °F 93% 30.06 in 3.0 mi West 8.1 mph - N/A   Overcast
1:35 AM 48.2 °F - 46.4 °F 93% 30.06 in 3.0 mi West 8.1 mph - N/A   Overcast
1:55 AM 48.2 °F - 46.4 °F 93% 30.06 in 4.0 mi West 4.6 mph - N/A   Overcast
2:15 AM 48.2 °F - 46.4 °F 93% 30.06 in 1.2 mi WSW 4.6 mph - N/A   Overcast
2:35 AM 48.2 °F - 46.4 °F 93% 30.07 in 3.0 mi WSW 5.8 mph - N/A   Light Drizzle
2:55 AM 46.4 °F 43.5 °F 46.4 °F 100% 30.07 in 4.0 mi West 5.8 mph - N/A Rain Rain
3:15 AM 46.4 °F 42.9 °F 46.4 °F 100% 30.08 in 2.0 mi West 6.9 mph - 0.01 in   Heavy Drizzle
3:35 AM 46.4 °F 45.2 °F 46.4 °F 100% 30.08 in 2.0 mi WNW 3.5 mph - 0.01 in Rain Rain
3:55 AM 46.4 °F 44.3 °F 46.4 °F 100% 30.08 in 2.0 mi WNW 4.6 mph - 0.02 in   Drizzle
4:15 AM 46.4 °F 44.3 °F 46.4 °F 100% 30.09 in 2.5 mi West 4.6 mph - N/A   Overcast
4:35 AM 46.4 °F 44.3 °F 46.4 °F 100% 30.09 in 3.0 mi West 4.6 mph - N/A   Overcast
4:55 AM 46.4 °F 44.3 °F 46.4 °F 100% 30.10 in 3.0 mi West 4.6 mph - N/A Rain Light Rain
5:15 AM 46.4 °F 44.3 °F 46.4 °F 100% 30.10 in 2.0 mi West 4.6 mph - N/A Rain Rain
5:35 AM 46.4 °F 42.4 °F 46.4 °F 100% 30.11 in 1.5 mi NW 8.1 mph - N/A   Drizzle
5:55 AM 46.4 °F 45.2 °F 46.4 °F 100% 30.12 in 3.0 mi WNW 3.5 mph - N/A   Overcast
6:15 AM 46.4 °F 44.3 °F 46.4 °F 100% 30.13 in 2.0 mi WNW 4.6 mph - N/A   Heavy Drizzle
6:35 AM 46.4 °F - 46.4 °F 100% 30.13 in 2.5 mi Calm Calm - N/A   Overcast
6:55 AM 46.4 °F - 46.4 °F 100% 30.14 in 3.0 mi Calm Calm - N/A   Overcast
7:15 AM 46.4 °F - 46.4 °F 100% 30.14 in 4.0 mi Calm Calm - N/A   Overcast
7:35 AM 46.4 °F 45.2 °F 46.4 °F 100% 30.15 in 4.0 mi WSW 3.5 mph - N/A   Overcast
7:55 AM 46.4 °F - 46.4 °F 100% 30.15 in 1.5 mi Calm Calm - N/A   Drizzle
8:15 AM 46.4 °F 45.2 °F 46.4 °F 100% 30.16 in 1.8 mi West 3.5 mph - N/A   Overcast
8:35 AM 46.4 °F - 46.4 °F 100% 30.17 in 1.5 mi Calm Calm - N/A   Overcast
8:55 AM 46.4 °F - 46.4 °F 100% 30.18 in 1.5 mi Calm Calm - N/A   Overcast
9:15 AM 46.4 °F 45.2 °F 46.4 °F 100% 30.19 in 0.8 mi West 3.5 mph - N/A   Overcast
9:35 AM 46.4 °F 45.2 °F 46.4 °F 100% 30.20 in 1.0 mi West 3.5 mph - N/A Rain Rain
9:55 AM 46.4 °F - 46.4 °F 100% 30.21 in 1.2 mi Calm Calm - 0.01 in   Drizzle
10:15 AM 46.4 °F - 46.4 °F 100% 30.21 in 2.0 mi Calm Calm - N/A   Overcast
10:35 AM 46.4 °F - 46.4 °F 100% 30.22 in 2.5 mi Calm Calm - N/A   Overcast
10:55 AM 46.4 °F - 46.4 °F 100% 30.23 in 5.0 mi Calm Calm - N/A   Overcast
11:15 AM 46.4 °F - 46.4 °F 100% 30.23 in 1.0 mi Calm Calm - N/A Rain Light Rain
11:35 AM 46.4 °F 45.2 °F 46.4 °F 100% 30.23 in 0.8 mi WNW 3.5 mph - N/A   Overcast
11:55 AM 46.4 °F - 46.4 °F 100% 30.23 in 4.0 mi Calm Calm - N/A   Overcast
12:15 PM 48.2 °F - 46.4 °F 93% 30.22 in 4.0 mi West 3.5 mph - N/A   Mostly Cloudy
12:35 PM 46.4 °F - 46.4 °F 100% 30.23 in 3.0 mi Calm Calm - N/A   Overcast
12:55 PM 46.4 °F - 46.4 °F 100% 30.23 in 5.0 mi Calm Calm - N/A   Overcast
1:15 PM 46.4 °F - 46.4 °F 100% 30.22 in 4.0 mi Calm Calm - N/A   Overcast
1:35 PM 46.4 °F 44.3 °F 46.4 °F 100% 30.22 in 2.0 mi WSW 4.6 mph - N/A   Overcast
1:55 PM 46.4 °F 45.2 °F 46.4 °F 100% 30.22 in 2.0 mi WSW 3.5 mph - N/A   Overcast
2:15 PM 46.4 °F - 46.4 °F 100% 30.22 in 2.5 mi Calm Calm - N/A   Overcast
2:35 PM 46.4 °F - 46.4 °F 100% 30.22 in 1.5 mi Calm Calm - N/A   Overcast
2:55 PM 46.4 °F - 46.4 °F 100% 30.23 in 5.0 mi Calm Calm - N/A   Overcast
3:15 PM 46.4 °F - 46.4 °F 100% 30.24 in 5.0 mi Calm Calm - N/A   Overcast
3:35 PM 46.4 °F - 46.4 °F 100% 30.24 in 4.0 mi Calm Calm - N/A   Overcast
3:55 PM 46.4 °F 45.2 °F 44.6 °F 93% 30.24 in 2.0 mi NW 3.5 mph - N/A Rain Rain
4:15 PM 46.4 °F - 44.6 °F 93% 30.24 in 7.0 mi Calm Calm - N/A   Overcast
4:35 PM 46.4 °F - 44.6 °F 93% 30.24 in 4.0 mi Calm Calm - N/A   Mostly Cloudy
4:55 PM 44.6 °F - 44.6 °F 100% 30.25 in 3.0 mi Calm Calm - N/A   Overcast
5:15 PM 46.4 °F - 44.6 °F 93% 30.26 in 7.0 mi Calm Calm - N/A   Overcast
5:35 PM 46.4 °F - 44.6 °F 93% 30.27 in 5.0 mi Calm Calm - N/A   Overcast
5:55 PM 46.4 °F - 44.6 °F 93% 30.28 in 1.5 mi Calm Calm - N/A   Light Drizzle
6:15 PM 46.4 °F - 44.6 °F 93% 30.29 in 1.8 mi Calm Calm - N/A   Light Drizzle
6:35 PM 46.4 °F - 44.6 °F 93% 30.29 in 1.2 mi Calm Calm - N/A   Overcast
6:55 PM 46.4 °F 44.3 °F 44.6 °F 93% 30.26 in 1.2 mi SSE 4.6 mph - N/A   Overcast
7:15 PM 44.6 °F - 44.6 °F 100% 30.28 in 1.8 mi Calm Calm - N/A   Overcast
7:35 PM 46.4 °F 44.3 °F 44.6 °F 93% 30.28 in 1.0 mi SSW 4.6 mph - N/A   Light Drizzle
7:55 PM 44.6 °F 40.7 °F 44.6 °F 100% 30.25 in 1.5 mi SSE 6.9 mph - N/A   Overcast
8:15 PM 44.6 °F 43.1 °F 44.6 °F 100% 30.29 in 5.0 mi South 3.5 mph - N/A   Overcast
8:35 PM 44.6 °F 42.2 °F 44.6 °F 100% 30.28 in 10.0 mi South 4.6 mph - N/A   Overcast
8:55 PM 44.6 °F 42.2 °F 44.6 °F 100% 30.29 in 7.0 mi South 4.6 mph - N/A   Overcast
9:15 PM 44.6 °F 41.4 °F 44.6 °F 100% 30.29 in 5.0 mi South 5.8 mph - N/A   Overcast
9:35 PM 44.6 °F 43.1 °F 44.6 °F 100% 30.29 in 3.0 mi South 3.5 mph - N/A   Overcast
9:55 PM 44.6 °F 40.2 °F 44.6 °F 100% 30.29 in 4.0 mi SSW 8.1 mph - 0.01 in   Overcast
10:15 PM 46.4 °F 42.4 °F 44.6 °F 93% 30.29 in 2.5 mi SSW 8.1 mph - N/A   Overcast
10:35 PM 46.4 °F 42.4 °F 44.6 °F 93% 30.30 in 2.5 mi South 8.1 mph - N/A   Overcast
10:55 PM 46.4 °F 42.4 °F 44.6 °F 93% 30.30 in 2.0 mi SSW 8.1 mph - N/A   Overcast
11:15 PM 46.4 °F 41.5 °F 44.6 °F 93% 30.29 in 2.5 mi SSW 10.4 mph - N/A   Overcast
11:35 PM 46.4 °F 42.4 °F 44.6 °F 93% 30.30 in 2.5 mi SSW 8.1 mph - N/A   Overcast
11:55 PM 46.4 °F 41.9 °F 44.6 °F 93% 30.30 in 2.5 mi SW 9.2 mph - N/A   Overcast